Regional Weather Roundup
Issued by NWS Green Bay, WI

Home | Current Version | Previous Version | Text Only | Print | Product List | Glossary On
Versions: 1 2 3 4 5 6 7 8 9 10 11 12 13 14 15 16 17 18 19 20 21 22 23 24 25 26 27 28 29 30 31 32 33 34 35 36 37 38 39 40 41 42 43 44 45 46 47 48 49 50
000
ASUS43 KGRB 232200
RWRGRB

NORTH-CENTRAL AND NORTHEAST WISCONSIN REGIONAL WEATHER ROUNDUP
NATIONAL WEATHER SERVICE GREEN BAY WI
500 PM CDT MON APR 23 2018

WIZ005-009-010>012-018-019-232300-
NORTH CENTRAL WISCONSIN

CITY           SKY/WX    TMP DP  RH WIND       PRES   REMARKS
IRONWOOD       NOT AVBL
MANITOWISH WTR NOT AVBL
ARBOR VITAE    NOT AVBL
EAGLE RIVER    FAIR      60  22  23 SW7       30.15S
LAND O LAKES   FAIR      63  22  20 CALM      30.16F
RHINELANDER    FAIR      63  25  23 CALM      30.16F
PHILLIPS       FAIR      63  30  29 S6        30.14F
ANTIGO         NOT AVBL
TOMAHAWK       NOT AVBL
MERRILL        NOT AVBL
$$

WIZ013-073-232300-
NORTHEAST WISCONSIN

CITY           SKY/WX    TMP DP  RH WIND       PRES   REMARKS
IRON MOUNTAIN  FAIR      67  18  15 CALM      30.13F
MARINETTE      FAIR      61  24  24 SE9       30.18F
$$

WIZ017-030-035>037-045-232300-
CENTRAL WISCONSIN

CITY           SKY/WX    TMP DP  RH WIND       PRES   REMARKS
MEDFORD        NOT AVBL
WAUSAU         FAIR      64  24  21 CALM      30.13F
MOSINEE        MOSUNNY   63  25  23 VRB5      30.16F
MARSHFIELD     FAIR      62  27  26 SE6       30.14F
WISC RAPIDS    FAIR      65  25  22 E8        30.16F
STEVENS POINT  NOT AVBL
WAUPACA        FAIR      64  24  21 N7        30.17F
SHAWANO        FAIR      64  25  22 CALM      30.17S
CLINTONVILLE   FAIR      62  20  20 CALM      30.16F
WAUTOMA        FAIR      64  25  22 E9        30.15F
$$

WIZ038-039-048-051-232300-
FOX VALLEY

CITY           SKY/WX    TMP DP  RH WIND       PRES   REMARKS
NWS GREEN BAY  FAIR      62  32  32 NE7       30.17F
APPLETON       SUNNY     63  21  20 NE7       30.15F
OSHKOSH        FAIR      61  33  35 NE8       30.16F
FOND DU LAC    FAIR      61  32  33 NE12      30.15F
$$

WIZ022-050-052-232300-
EAST CENTRAL WISCONSIN

CITY           SKY/WX    TMP DP  RH WIND       PRES   REMARKS
EPHRAIM        NOT AVBL
WASHINGTON ISL NOT AVBL
STURGEON BAY   NOT AVBL
MANITOWOC      FAIR      60  26  27 VRB6      30.16F
SHEBOYGAN      FAIR      58  30  34 NE13      30.15F
$$

LMZ563-521-522-541>543-232300-
LAKESHORE

STATION/POSITION TIME  TEMP    WIND        PRES    VSBY  WAVE
                       AIR SEA DIR/SP/G                  HT/PER
                 (UTC) (F)     (DEG/KT/KT) (MB)    (MI)  (FT/S)
SHEBOYGAN LKSHOR 2100   46      10/ 12/ 13 1021.8F
KEWAUNEE LKSHORE 2130   46      30/  4/  6 1021.1F
NORTHPORT PIER   2140   42                 1022.0F
SISTER BAY LKSHO 2127   57        CALM       N/A
MENOMINEE LKSHOR 2130   56     140/  4/  4 1021.5F
$$




USA.gov is the U.S. government's official web portal to all federal, state and local government web resources and services.